Regional Weather Roundup
Issued by NWS

Home | Current Version | Previous Version | Graphics & Text | Print | Product List | Glossary On
Versions: 1 2 3 4 5 6 7 8 9 10 11 12 13 14 15 16 17 18 19 20 21 22 23 24 25 26 27 28 29 30 31 32 33 34 35 36 37 38 39 40 41 42 43 44 45 46 47 48 49 50
000
ASUS43 KLSX 020107
RWRMO

WEATHER SUMMARY FOR MISSOURI
NATIONAL WEATHER SERVICE SPRINGFIELD MO
800 PM CDT WED OCT 01 2014

NOTE: "FAIR" INDICATES FEW OR NO CLOUDS BELOW 12,000 FEET WITH NO
       SIGNIFICANT WEATHER AND/OR OBSTRUCTIONS TO VISIBILITY.
       CURRENT SKY AND/OR WEATHER CONDITIONS ARE NOT AVAILABLE FOR
       CHILLICOTHE AND FARMINGTON.

MOZ001>031-035>038-043-044-053-054-020200-
...NORTHERN AND WESTERN MISSOURI...

CITY           SKY/WX    TMP DP  RH WIND       PRES   REMARKS
KANSAS CTY INT MOCLDY    69  65  86 E7        29.75S
KANSAS C DTWN  MOCLDY    68  65  90 E8        29.74R
LEE`S SUMMIT   CLOUDY    68  66  93 E8        29.75F
ST JOSEPH      PTCLDY    73  67  81 SE10      29.74R
CHILLICOTHE      N/A     68  66  93 E7        29.79R
KIRKSVILLE     CLOUDY    65  65 100 S5        29.83R FOG

$$
MOZ066>068-077>081-088>096-101>105-020200-
...SOUTHWEST MISSOURI...

CITY           SKY/WX    TMP DP  RH WIND       PRES   REMARKS
SPRINGFIELD    MOCLDY    77  65  66 S7        29.80R
JOPLIN         CLEAR     78  67  68 S17       29.74S

$$
MOZ032>034-039>042-045>050-055>058-069>072-020200-
...CENTRAL MISSOURI...

CITY           SKY/WX    TMP DP  RH WIND       PRES   REMARKS
COLUMBIA       LGT RAIN  68  66  93 NW9G20    29.84R
ROLLA          CLOUDY    79  64  60 S10G22    29.81R
SEDALIA        CLOUDY    65  63  93 E8        29.76F
WHITEMAN AFB   CLOUDY    66  64  93 N7        29.76R
OSAGE BEACH    CLOUDY    72  59  64 N10G31    29.82R

$$
MOZ051-052-059>065-020200-
...EAST CENTRAL MISSOURI...

CITY           SKY/WX    TMP DP  RH WIND       PRES   REMARKS
ST LOUIS INTL  CLOUDY    84  63  49 S13G21    29.82R
SPIRIT OF STL  CLOUDY    80  63  55 SE5       29.80R
ST CHARLES     CLOUDY    80  63  55 S6        29.81R

$$
MOZ072>076-082>087-097>100-106>115-020200-
...SOUTH CENTRAL AND SOUTHEAST MISSOURI...

CITY           SKY/WX    TMP DP  RH WIND       PRES   REMARKS
CAPE GIRARDEAU PTCLDY    77  62  59 S6        29.87S
FARMINGTON     MOCLDY    77  64  65 S16G23    29.88R
POPLAR BLUFF   PTCLDY    69  66  90 CALM      29.87R FOG
WEST PLAINS    MOCLDY    76  67  73 SE7       29.86R

$$


USA.gov is the U.S. government's official web portal to all federal, state and local government web resources and services.